Paris / Charles De Gaulle, France

2:43 AM CEST on March 31, 2017 (GMT +0200)
Charles de Gaulle

Weather History for LFPG - February, 2013

Change the Weather History Date:

Monday, February 18, 2013

  Actual Average Record
Temperature  
Mean Temperature 36 °F -  
Max Temperature 42 °F 49 °F 59 °F (2007)
Min Temperature 30 °F 36 °F 23 °F (2003)
Degree Days  
Heating Degree Days 29    
Moisture  
Dew Point 30 °F    
Average Humidity 82    
Maximum Humidity 93    
Minimum Humidity 66    
Precipitation  
Precipitation 0.00 in - - ()
Sea Level Pressure  
Sea Level Pressure 30.08 in    
Wind  
Wind Speed 8 mph ()    
Max Wind Speed 10 mph    
Max Gust Speed -    
Visibility 4.9 miles    
Events      
Averages and records for this station are not official NWS values.
T = Trace of Precipitation, MM = Missing Value Source: Averaged Metar Reports

Daily Weather History Graph

Daily Weather History Graph

Search for Another Location

Airport or City:

Trip Planner

Search our weather history database for the weather conditions in past years. The results will help you decide how hot, cold, wet, or windy it might be!

Date:

Astronomy

Feb. 18, 2013 Rise Set
Actual Time 7:52 AM CET 6:15 PM CET
Civil Twilight 7:20 AM CET 6:47 PM CET
Nautical Twilight 6:43 AM CET 7:24 PM CET
Astronomical Twilight 6:07 AM CET 8:01 PM CET
Moon 11:35 AM CET (2/18) 2:32 AM CET (2/18)
Length of Visible Light 11h 27m
Length of Day
10h 22m
First Quarter, 56% of the Moon is Illuminated
Feb 18
First Quarter
Feb 25
Full
Mar 4
Last Quarter
Mar 11
New
Mar 19
First Quarter

Hourly Weather History & Observations

Time (CET) Temp. Windchill Dew Point Humidity Pressure Visibility Wind Dir Wind Speed Gust Speed Precip Events Conditions
12:00 AM 33.8 °F 27.0 °F 30.2 °F 87% 30.09 in 5.0 mi East 8.1 mph - N/A   Unknown
12:30 AM 33.8 °F 26.4 °F 30.2 °F 87% 30.09 in 5.0 mi East 9.2 mph - N/A   Unknown
1:00 AM 32.0 °F 24.8 °F 28.4 °F 87% 30.09 in 5.6 mi East 8.1 mph - N/A   Unknown
1:30 AM 30.2 °F 22.6 °F 28.4 °F 93% 30.09 in 5.6 mi ENE 8.1 mph - N/A   Unknown
2:00 AM 30.2 °F 22.6 °F 28.4 °F 93% 30.09 in - East 8.1 mph - N/A   Clear
2:30 AM 30.2 °F 22.6 °F 28.4 °F 93% 30.06 in - East 8.1 mph - N/A   Clear
3:00 AM 30.2 °F 23.4 °F 26.6 °F 86% 30.06 in - ENE 6.9 mph - N/A   Clear
3:30 AM 30.2 °F 22.6 °F 26.6 °F 86% 30.06 in 5.6 mi East 8.1 mph - N/A   Unknown
4:00 AM 30.2 °F 21.3 °F 26.6 °F 86% 30.06 in 5.0 mi ENE 10.4 mph - N/A   Unknown
4:30 AM 30.2 °F 22.6 °F 28.4 °F 93% 30.06 in 4.3 mi ENE 8.1 mph - N/A   Unknown
5:00 AM 30.2 °F 21.9 °F 28.4 °F 93% 30.06 in 3.7 mi ENE 9.2 mph - N/A   Unknown
5:30 AM 30.2 °F 23.4 °F 28.4 °F 93% 30.06 in 3.7 mi ENE 6.9 mph - N/A   Unknown
6:00 AM 30.2 °F 22.6 °F 28.4 °F 93% 30.06 in 3.7 mi East 8.1 mph - N/A   Unknown
6:30 AM 30.2 °F 23.4 °F 28.4 °F 93% 30.06 in 3.7 mi ENE 6.9 mph - N/A   Unknown
7:00 AM 30.2 °F 21.9 °F 28.4 °F 93% 30.06 in 3.7 mi ENE 9.2 mph - N/A   Unknown
7:30 AM 30.2 °F 22.6 °F 28.4 °F 93% 30.06 in 3.7 mi ENE 8.1 mph - N/A   Unknown
8:00 AM 30.2 °F 22.6 °F 28.4 °F 93% 30.06 in 3.7 mi East 8.1 mph - N/A   Unknown
8:30 AM 30.2 °F 22.6 °F 28.4 °F 93% 30.09 in 5.0 mi ENE 8.1 mph - N/A   Unknown
9:00 AM 32.0 °F 25.6 °F 30.2 °F 93% 30.09 in 5.6 mi ENE 6.9 mph - N/A   Unknown
9:30 AM 33.8 °F 27.0 °F 30.2 °F 87% 30.09 in 5.6 mi ENE 8.1 mph - N/A   Unknown
10:00 AM 35.6 °F 29.2 °F 32.0 °F 87% 30.09 in 5.6 mi East 8.1 mph - N/A   Unknown
10:30 AM 37.4 °F 30.8 °F 32.0 °F 81% 30.09 in 5.6 mi East 9.2 mph - N/A   Unknown
11:00 AM 37.4 °F 30.3 °F 30.2 °F 75% 30.12 in 5.6 mi East 10.4 mph - N/A   Unknown
11:30 AM 39.2 °F 33.0 °F 30.2 °F 70% 30.12 in 5.6 mi East 9.2 mph - N/A   Unknown
12:00 PM 39.2 °F 33.6 °F 32.0 °F 75% 30.12 in - ENE 8.1 mph - N/A   Clear
12:30 PM 39.2 °F 33.0 °F 32.0 °F 75% 30.12 in - East 9.2 mph - N/A   Clear
1:00 PM 41.0 °F 35.8 °F 32.0 °F 70% 30.09 in 6.2 mi East 8.1 mph - N/A   Partly Cloudy
1:30 PM 41.0 °F 35.2 °F 32.0 °F 70% 30.09 in 6.2 mi East 9.2 mph - N/A   Partly Cloudy
2:00 PM 42.8 °F 37.5 °F 32.0 °F 66% 30.09 in 6.2 mi East 9.2 mph - N/A   Partly Cloudy
2:30 PM 42.8 °F 37.5 °F 32.0 °F 66% 30.09 in 6.2 mi East 9.2 mph - N/A   Partly Cloudy
3:00 PM 42.8 °F 37.5 °F 32.0 °F 66% 30.09 in 6.2 mi East 9.2 mph - N/A   Partly Cloudy
3:30 PM 42.8 °F 37.0 °F 33.8 °F 70% 30.06 in 6.2 mi ENE 10.4 mph - N/A   Partly Cloudy
4:00 PM 42.8 °F 37.5 °F 32.0 °F 66% 30.06 in 6.2 mi ENE 9.2 mph - N/A   Partly Cloudy
4:30 PM 42.8 °F 37.0 °F 32.0 °F 66% 30.06 in 6.2 mi ENE 10.4 mph - N/A   Partly Cloudy
5:00 PM 42.8 °F 37.0 °F 32.0 °F 66% 30.06 in 6.2 mi ENE 10.4 mph - N/A   Partly Cloudy
5:30 PM 41.0 °F 35.8 °F 32.0 °F 70% 30.06 in - ENE 8.1 mph - N/A   Clear
6:00 PM 39.2 °F 32.5 °F 32.0 °F 75% 30.09 in - ENE 10.4 mph - N/A   Clear
6:30 PM 39.2 °F 33.0 °F 32.0 °F 75% 30.09 in - ENE 9.2 mph - N/A   Clear
7:00 PM 39.2 °F 34.2 °F 32.0 °F 75% 30.09 in 5.0 mi ENE 6.9 mph - N/A   Unknown
7:30 PM 37.4 °F 32.1 °F 30.2 °F 75% 30.09 in 4.3 mi ENE 6.9 mph - N/A   Unknown
8:00 PM 37.4 °F 32.8 °F 32.0 °F 81% 30.09 in 4.3 mi ENE 5.8 mph - N/A   Unknown
8:30 PM 35.6 °F 31.7 °F 30.2 °F 81% 30.09 in 3.7 mi NE 4.6 mph - N/A   Unknown
9:00 PM 33.8 °F 28.6 °F 30.2 °F 87% 30.09 in 3.7 mi NE 5.8 mph - N/A   Unknown
9:30 PM 35.6 °F 31.7 °F 30.2 °F 81% 30.09 in 3.7 mi NE 4.6 mph - N/A   Unknown
10:00 PM 33.8 °F 27.7 °F 30.2 °F 87% 30.09 in 3.7 mi NE 6.9 mph - N/A   Unknown
10:30 PM 33.8 °F 28.6 °F 28.4 °F 81% 30.09 in 3.7 mi NE 5.8 mph - N/A   Unknown
11:00 PM 32.0 °F 26.4 °F 30.2 °F 93% 30.09 in 3.7 mi NNE 5.8 mph - N/A   Partly Cloudy
11:30 PM 32.0 °F 25.6 °F 28.4 °F 87% 30.09 in 3.7 mi NE 6.9 mph - N/A   Partly Cloudy